Location: Newark
(49.8348°N, 24.0280°E)
Time: 13:40:20
(UTC+00:00)

Explorer 7 - Pass Details

Date: 22 January 2020
Orbit: 485 x 679 km, 50.3° (Epoch: 25 February)

Event Time Altitude Azimuth Distance (km) Brightness Sun altitude
Rises 05:00:49 0° 279° (W) 2,637 - -11.0°
Exits shadow 05:03:51 10° 253° (WSW) 1,810 9.0 -10.6°
Reaches altitude 10° 05:04:00 10° 251° (WSW) 1,784 9.0 -10.5°
Maximum altitude 05:05:54 13° 223° (SW) 1,618 9.0 -10.2°
Drops below altitude 10° 05:07:51 10° 195° (SSW) 1,832 9.5 -10.0°
Sets 05:11:13 0° 167° (SSE) 2,775 10.9 -9.4°
